• In Belgium
  • List of Countries
  • For 7 days
  • Water Temperature
  • Satellite Maps
  • Weather Map
  • Weather Widgets
  • user-avatar
    Login

    Hourly Weather Byala

    Today, 27 May, Sunday

    Time Temperature Precipitation Wind Pressure Humidity
    00:00 +16°C° 0 mm 6 mps 753 mmHg 96%
    01:00 +16°C° 0 mm 6 mps 753 mmHg 96%
    02:00 +16°C° 0 mm 6 mps 753 mmHg 96%
    03:00 +16°C° 0 mm 6 mps 753 mmHg 95%
    04:00 +16°C° 0 mm 6 mps 753 mmHg 94%
    05:00 +16°C° 0 mm 7 mps 753 mmHg 94%
    06:00 +17°C° 0.1 mm 7 mps 753 mmHg 90%
    07:00 +18°C° 0.1 mm 7 mps 753 mmHg 87%
    08:00 +18°C° 0.1 mm 7 mps 754 mmHg 84%
    09:00 +20°C° 0.3 mm 7 mps 754 mmHg 82%
    10:00 +20°C° 0.3 mm 7 mps 754 mmHg 80%
    11:00 +21°C° 0.3 mm 7 mps 754 mmHg 79%
    12:00 +21°C° 0.1 mm 7 mps 754 mmHg 76%
    13:00 +22°C° 0.1 mm 7 mps 754 mmHg 74%
    14:00 +22°C° 0.1 mm 7 mps 754 mmHg 72%
    15:00 +22°C° 0 mm 7 mps 754 mmHg 71%
    16:00 +22°C° 0 mm 7 mps 754 mmHg 70%
    17:00 +22°C° 0 mm 7 mps 753 mmHg 70%
    18:00 +20°C° 0 mm 7 mps 754 mmHg 75%
    19:00 +19°C° 0 mm 6 mps 754 mmHg 81%
    20:00 +16°C° 0 mm 6 mps 754 mmHg 86%
    21:00 +15°C° 0 mm 5 mps 754 mmHg 87%
    22:00 +14°C° 0 mm 5 mps 754 mmHg 89%
    23:00 +14°C° 0 mm 5 mps 754 mmHg 90%

    Tomorrow, 28 May, Monday

    Time Temperature Precipitation Wind Pressure Humidity
    00:00 +13°C° 0 mm 5 mps 754 mmHg 90%
    01:00 +13°C° 0 mm 5 mps 754 mmHg 90%
    02:00 +13°C° 0 mm 6 mps 754 mmHg 89%
    03:00 +13°C° 0 mm 6 mps 754 mmHg 89%
    04:00 +11°C° 0 mm 6 mps 754 mmHg 88%
    05:00 +11°C° 0 mm 6 mps 754 mmHg 88%
    06:00 +14°C° 0 mm 6 mps 754 mmHg 82%
    07:00 +16°C° 0 mm 7 mps 754 mmHg 75%
    08:00 +18°C° 0 mm 7 mps 755 mmHg 68%
    09:00 +20°C° 0 mm 7 mps 755 mmHg 65%
    10:00 +21°C° 0 mm 7 mps 755 mmHg 61%
    11:00 +23°C° 0 mm 8 mps 755 mmHg 58%
    12:00 +23°C° 0 mm 7 mps 755 mmHg 58%
    13:00 +23°C° 0 mm 7 mps 754 mmHg 57%
    14:00 +24°C° 0 mm 7 mps 754 mmHg 57%
    15:00 +23°C° 0 mm 7 mps 754 mmHg 58%
    16:00 +23°C° 0 mm 7 mps 754 mmHg 60%
    17:00 +22°C° 0 mm 7 mps 754 mmHg 62%
    18:00 +21°C° 0 mm 7 mps 754 mmHg 68%
    19:00 +19°C° 0 mm 6 mps 754 mmHg 75%
    20:00 +16°C° 0 mm 6 mps 754 mmHg 82%
    21:00 +15°C° 0 mm 6 mps 754 mmHg 82%
    22:00 +14°C° 0 mm 6 mps 754 mmHg 83%
    23:00 +14°C° 0 mm 5 mps 754 mmHg 83%

    Day after tomorrow, 29 May, Tuesday

    Time Temperature Precipitation Wind Pressure Humidity
    00:00 +13°C° 0 mm 5 mps 754 mmHg 81%
    01:00 +13°C° 0 mm 6 mps 754 mmHg 79%
    02:00 +13°C° 0 mm 6 mps 754 mmHg 77%
    03:00 +13°C° 0 mm 6 mps 753 mmHg 76%
    04:00 +13°C° 0 mm 6 mps 753 mmHg 76%
    05:00 +11°C° 0 mm 6 mps 753 mmHg 76%
    06:00 +14°C° 0 mm 7 mps 753 mmHg 72%
    07:00 +17°C° 0 mm 7 mps 753 mmHg 69%
    08:00 +20°C° 0 mm 7 mps 753 mmHg 66%
    09:00 +21°C° 0 mm 7 mps 753 mmHg 65%
    10:00 +22°C° 0 mm 7 mps 753 mmHg 63%
    11:00 +23°C° 0 mm 8 mps 753 mmHg 62%
    12:00 +23°C° 0 mm 7 mps 753 mmHg 61%
    13:00 +23°C° 0 mm 7 mps 753 mmHg 61%
    14:00 +24°C° 0 mm 7 mps 752 mmHg 61%
    15:00 +23°C° 0 mm 7 mps 752 mmHg 62%
    16:00 +23°C° 0 mm 7 mps 752 mmHg 64%
    17:00 +23°C° 0 mm 7 mps 752 mmHg 65%
    18:00 +21°C° 0 mm 6 mps 752 mmHg 70%
    19:00 +20°C° 0 mm 6 mps 752 mmHg 76%
    20:00 +17°C° 0 mm 5 mps 752 mmHg 81%
    21:00 +17°C° 0 mm 4 mps 751 mmHg 83%
    22:00 +17°C° 0 mm 4 mps 751 mmHg 86%
    23:00 +15°C° 0 mm 4 mps 751 mmHg 89%

    30 May, Wednesday

    Time Temperature Precipitation Wind Pressure Humidity
    00:00 +15°C° 0 mm 4 mps 751 mmHg 90%
    01:00 +14°C° 0 mm 4 mps 751 mmHg 91%
    02:00 +14°C° 0 mm 5 mps 751 mmHg 93%
    03:00 +14°C° 0 mm 5 mps 751 mmHg 92%
    04:00 +14°C° 0 mm 5 mps 750 mmHg 92%
    05:00 +14°C° 0 mm 5 mps 750 mmHg 92%
    06:00 +16°C° 0 mm 6 mps 750 mmHg 87%
    07:00 +19°C° 0 mm 6 mps 751 mmHg 81%
    08:00 +20°C° 0 mm 6 mps 751 mmHg 76%
    09:00 +21°C° 0 mm 6 mps 751 mmHg 73%
    10:00 +21°C° 0 mm 6 mps 751 mmHg 71%
    11:00 +22°C° 0 mm 6 mps 751 mmHg 68%
    12:00 +23°C° 0 mm 6 mps 751 mmHg 65%
    13:00 +23°C° 0 mm 6 mps 751 mmHg 63%
    14:00 +24°C° 0 mm 6 mps 751 mmHg 60%
    15:00 +25°C° 0 mm 5 mps 750 mmHg 61%
    16:00 +25°C° 0 mm 5 mps 750 mmHg 61%
    17:00 +23°C° 0 mm 5 mps 750 mmHg 62%
    18:00 +21°C° 0 mm 5 mps 750 mmHg 70%
    19:00 +19°C° 0 mm 4 mps 750 mmHg 78%
    20:00 +17°C° 0 mm 3 mps 750 mmHg 87%
    21:00 +16°C° 0 mm 3 mps 750 mmHg 87%
    22:00 +16°C° 0 mm 3 mps 750 mmHg 87%
    23:00 +14°C° 0 mm 3 mps 750 mmHg 88%

    31 May, Thursday

    Time Temperature Precipitation Wind Pressure Humidity
    00:00 +14°C° 0 mm 3 mps 749 mmHg 87%
    01:00 +14°C° 0 mm 3 mps 749 mmHg 86%
    02:00 +13°C° 0 mm 4 mps 749 mmHg 85%
    03:00 +13°C° 0 mm 4 mps 749 mmHg 84%
    04:00 +13°C° 0 mm 4 mps 749 mmHg 83%
    05:00 +13°C° 0 mm 4 mps 749 mmHg 82%
    06:00 +15°C° 0 mm 4 mps 749 mmHg 74%
    07:00 +18°C° 0 mm 4 mps 749 mmHg 66%
    08:00 +20°C° 0 mm 4 mps 749 mmHg 58%
    09:00 +22°C° 0 mm 4 mps 749 mmHg 54%
    10:00 +23°C° 0 mm 4 mps 749 mmHg 49%
    11:00 +25°C° 0 mm 4 mps 749 mmHg 45%
    12:00 +26°C° 0 mm 4 mps 749 mmHg 43%
    13:00 +26°C° 0 mm 4 mps 749 mmHg 42%
    14:00 +27°C° 0 mm 3 mps 749 mmHg 41%
    15:00 +26°C° 0 mm 3 mps 748 mmHg 44%
    16:00 +26°C° 0 mm 3 mps 748 mmHg 47%
    17:00 +26°C° 0 mm 3 mps 748 mmHg 51%
    18:00 +22°C° 0 mm 3 mps 748 mmHg 62%
    19:00 +20°C° 0 mm 2 mps 748 mmHg 73%
    20:00 +19°C° 0 mm 1 mps 748 mmHg 84%
    21:00 +18°C° 0 mm 1 mps 748 mmHg 84%
    22:00 +18°C° 0 mm 1 mps 748 mmHg 85%
    23:00 +16°C° 0 mm 1 mps 748 mmHg 86%

    1 June, Friday

    Time Temperature Precipitation Wind Pressure Humidity
    00:00 +16°C° 0 mm 1 mps 748 mmHg 85%
    01:00 +16°C° 0 mm 2 mps 748 mmHg 84%
    02:00 +16°C° 0 mm 2 mps 748 mmHg 83%
    03:00 +16°C° 0 mm 2 mps 748 mmHg 82%
    04:00 +16°C° 0 mm 2 mps 748 mmHg 80%
    05:00 +16°C° 0 mm 2 mps 748 mmHg 79%
    06:00 +18°C° 0 mm 2 mps 748 mmHg 72%
    07:00 +20°C° 0 mm 2 mps 749 mmHg 65%
    08:00 +24°C° 0 mm 2 mps 749 mmHg 59%
    09:00 +25°C° 0 mm 2 mps 749 mmHg 56%
    10:00 +26°C° 0 mm 2 mps 749 mmHg 54%
    11:00 +27°C° 0 mm 1 mps 749 mmHg 51%
    12:00 +26°C° 0.1 mm 2 mps 749 mmHg 58%
    13:00 +25°C° 0.1 mm 2 mps 749 mmHg 65%
    14:00 +24°C° 0.1 mm 3 mps 749 mmHg 71%
    15:00 +24°C° 0.1 mm 3 mps 749 mmHg 72%
    16:00 +24°C° 0.1 mm 2 mps 749 mmHg 73%
    17:00 +24°C° 0.1 mm 2 mps 749 mmHg 73%
    18:00 +23°C° 0 mm 2 mps 749 mmHg 74%
    19:00 +22°C° 0 mm 1 mps 749 mmHg 75%
    20:00 +20°C° 0 mm 1 mps 749 mmHg 76%
    21:00 +19°C° 0 mm 2 mps 750 mmHg 77%
    22:00 +18°C° 0 mm 3 mps 750 mmHg 79%
    23:00 +18°C° 0 mm 3 mps 750 mmHg 80%
    Show more